Location: Iesi
(43.5167°N, 13.2333°E)
Time: 00:58:29
(UTC+00:00)

Cosmos 2369 - Pass Details

Date: 08 August 2020
Orbit: 838 x 857 km, 71.0° (Epoch: 19 September)

Event Time Altitude Azimuth Distance (km) Brightness Sun altitude
Rises 19:56:58 0° 335° (NNW) 3,439 8.1 -15.7°
Reaches altitude 10° 19:59:26 10° 336° (NNW) 2,499 7.2 -16.0°
Maximum altitude 20:05:12 83° 65° (ENE) 870 3.7 -16.8°
Enters shadow 20:08:29 27° 151° (SSE) 1,592 4.6 -17.3°
